Date,TemperatureHighF,TemperatureAvgF,TemperatureLowF,DewpointHighF,DewpointAvgF,DewpointLowF,HumidityHigh,HumidityAvg,HumidityLow,PressureMaxIn,PressureMinIn,WindSpeedMaxMPH,WindSpeedAvgMPH,GustSpeedMaxMPH,PrecipitationSumIn
2012-4-11,53,38,38,32,-2,-100,76,35,37,30.27,30.21,9,-232,15,0.00
2012-4-12,58,29,32,36,-24,-100,89,30,35,30.31,30.15,8,-417,17,0.00
2012-4-13,-200,0,200,-100,-100,-100,0,0,100,30.20,30.19,0,-999,0,0.00
2012-4-16,62,51,47,58,36,-100,89,66,61,30.19,29.60,33,-45,45,0.01
2012-4-17,58,48,40,41,39,36,94,70,46,30.37,30.19,7,2,14,0.00
2012-4-18,68,54,37,45,39,33,88,60,39,30.31,29.99,12,4,21,0.00
2012-4-19,76,65,56,51,46,42,68,53,30,30.00,29.76,15,8,26,0.00
2012-4-20,67,55,41,52,45,40,98,73,45,29.89,29.65,19,9,24,0.05
2012-4-21,54,45,37,40,33,26,95,66,34,30.00,29.89,14,6,21,0.00
2012-4-22,51,43,36,32,28,23,78,56,36,30.03,29.97,18,9,26,0.00
2012-4-23,55,45,35,27,21,14,65,41,22,30.02,29.76,19,7,28,0.00
2012-4-24,59,48,36,28,25,21,65,42,24,29.76,29.70,16,8,32,0.00
2012-4-25,55,51,44,52,41,24,91,71,39,29.79,29.67,10,4,18,0.05
2012-4-26,57,50,37,52,41,18,95,74,28,30.13,29.59,15,7,28,0.01
2012-4-27,56,43,31,30,22,18,73,46,25,30.29,30.11,11,5,17,0.00
2012-4-28,49,45,41,40,35,26,87,69,41,30.23,30.08,15,8,26,0.23
2012-4-29,63,50,37,45,36,32,84,61,33,30.29,30.12,14,7,23,0.27
2012-4-30,65,56,46,62,50,28,97,80,42,30.12,29.86,11,6,18,0.37
2012-5-1,66,58,52,59,56,52,99,90,70,30.04,29.86,11,4,16,0.17
2012-5-2,79,67,59,68,63,58,100,89,62,29.88,29.84,22,11,34,0.00
2012-5-3,85,79,70,69,64,58,81,62,46,29.96,29.84,21,12,32,0.00
2012-5-4,74,70,67,63,60,57,87,72,56,29.92,29.86,12,8,21,0.00
2012-5-7,68,60,52,63,57,49,96,90,80,29.88,29.78,13,4,17,0.56
2012-5-8,68,58,51,57,51,46,99,80,47,29.86,29.80,13,6,22,0.00
2012-5-9,60,55,46,50,45,37,86,71,55,29.91,29.82,16,7,25,0.00
2012-5-10,66,53,41,41,36,27,90,57,25,30.04,29.91,8,3,17,0.00
2012-5-11,76,61,41,44,36,29,83,46,19,30.15,30.04,10,3,19,0.00
2012-5-12,64,62,61,45,42,40,54,49,41,30.15,30.14,7,4,8,0.00
2012-5-17,71,64,48,42,38,33,75,40,26,30.18,30.06,10,6,19,0.00
2012-5-18,82,67,50,43,38,35,60,37,20,30.12,29.99,10,5,16,0.00
2012-5-19,71,69,67,39,38,38,35,33,30,30.03,30.02,7,4,13,0.00
2012-5-21,62,59,54,56,52,49,91,79,70,30.06,30.01,13,5,21,0.34
2012-5-22,73,60,49,51,47,43,86,65,40,30.04,29.90,8,3,13,0.00
2012-5-23,80,65,51,55,51,46,87,62,37,29.92,29.82,10,4,16,0.00
2012-5-25,84,77,69,64,54,43,69,47,24,30.06,29.80,13,6,18,0.00
2012-5-26,89,75,65,64,55,45,59,50,40,30.15,29.99,15,7,21,0.00
2012-5-27,73,71,70,56,54,52,57,55,53,30.05,30.02,9,7,18,0.00
2012-5-29,84,76,67,63,50,42,70,42,23,29.83,29.73,17,7,28,0.00
2012-5-30,72,64,55,50,46,42,73,52,35,29.91,29.80,14,4,23,0.00
2012-5-31,65,55,49,52,48,44,98,80,63,29.96,29.76,17,7,24,0.36
2012-6-1,53,51,48,51,48,44,97,91,75,29.79,29.67,20,9,25,0.11
2012-6-2,72,59,45,54,47,40,94,69,34,29.79,29.72,20,10,33,0.00
2012-6-3,78,66,53,57,49,39,94,60,25,29.82,29.78,16,8,25,0.00
2012-6-4,77,68,58,54,51,45,81,57,35,29.87,29.76,11,4,18,0.00
2012-6-5,68,61,54,52,49,44,86,65,43,30.00,29.87,11,6,19,0.00
2012-6-6,76,64,49,51,47,42,90,57,30,30.07,29.99,10,3,15,0.00
2012-6-7,80,50,54,54,4,-100,85,32,30,30.10,30.02,8,-303,16,0.00
2012-6-8,85,43,-90,51,-18,-100,74,20,23,30.07,29.90,10,-427,17,0.00
2012-6-9,87,42,-90,55,-20,-100,63,19,27,29.96,29.85,14,-469,20,0.00
2012-6-10,91,45,-90,62,-15,-100,62,22,30,29.98,29.88,11,-449,21,0.00
2012-6-11,85,40,-90,69,-14,-100,79,35,56,29.89,29.77,12,-472,19,0.00
2012-6-12,75,38,-90,65,-16,-100,72,27,38,30.10,29.80,17,-406,27,0.00
2012-6-13,-200,0,200,-100,-100,-100,0,0,100,30.13,30.10,0,-999,0,0.00
2012-6-19,86,21,76,69,-57,-100,67,16,57,30.01,29.93,17,-740,25,0.12
2012-6-20,-200,0,200,-100,-100,-100,0,0,100,30.06,29.93,0,-999,0,0.00
2012-6-21,-200,0,200,-100,-100,-100,0,0,100,29.98,29.88,0,-999,0,0.00
2012-6-22,-200,0,200,-100,-100,-100,0,0,100,29.99,29.93,0,-999,0,0.00
2012-6-23,-200,0,200,-100,-100,-100,0,0,100,30.03,29.97,0,-999,0,0.00
2012-6-24,-200,0,200,-100,-100,-100,0,0,100,30.02,29.89,0,-999,0,0.00
2012-6-25,-200,0,200,-100,-100,-100,0,0,100,30.03,29.92,0,-999,0,0.00
2012-6-26,81,25,67,53,-53,-100,57,12,28,30.09,29.90,5,-676,8,0.04
2012-6-27,89,75,58,53,51,47,71,45,26,30.01,29.81,13,6,23,0.00
2012-6-28,100,86,75,76,65,52,71,50,42,29.83,29.69,16,9,27,0.00
2012-6-29,88,76,60,72,67,60,97,74,51,29.96,29.68,17,3,26,0.20
2012-6-30,85,76,66,74,69,65,96,81,57,29.89,29.76,13,5,19,0.22
2012-7-1,89,76,69,74,69,60,98,79,48,30.01,29.83,28,3,36,0.00
2012-7-2,90,86,69,74,71,66,93,62,49,29.99,29.89,9,4,15,0.00
2012-7-3,92,83,72,74,69,65,83,66,44,29.91,29.80,12,7,18,0.00
2012-7-4,98,87,75,75,72,67,88,64,37,29.87,29.80,13,7,21,0.00
2012-7-5,99,87,76,75,71,64,87,62,33,29.92,29.84,11,4,18,0.00
2012-7-6,100,89,77,78,74,70,87,64,41,29.92,29.85,10,4,19,0.00
2012-7-7,99,88,77,78,73,68,83,63,38,29.92,29.84,12,5,18,0.00
2012-7-8,84,77,71,70,64,54,89,67,36,30.00,29.90,10,4,15,0.00
2012-7-9,88,56,-90,64,13,-100,81,37,35,30.02,29.93,8,-282,16,0.00
2012-7-10,87,50,64,64,0,-100,82,33,30,30.05,29.98,9,-363,16,0.00
2012-7-11,87,50,64,59,-4,-100,77,26,29,30.11,30.03,9,-372,17,0.00
2012-7-12,-200,0,200,-100,-100,-100,0,0,100,30.07,30.05,0,-999,0,0.00
2012-7-19,82,53,69,76,19,-100,100,59,73,29.93,29.80,8,-310,14,0.07
2012-7-20,80,39,65,63,-17,-100,91,32,49,30.03,29.86,11,-478,19,0.00
2012-7-21,84,40,-90,70,-15,-100,100,32,49,30.10,29.99,7,-467,10,0.00
2012-7-22,86,47,70,72,-4,-100,85,37,51,30.09,30.00,10,-423,14,0.00
2012-7-23,93,51,-90,76,4,-100,89,40,51,30.01,29.84,13,-386,18,0.14
2012-7-24,82,76,68,73,71,67,99,84,68,30.02,29.82,11,4,17,0.83
2012-7-25,92,79,69,80,69,58,90,72,57,29.92,29.60,12,6,18,0.00
2012-7-26,84,79,69,75,71,67,95,78,63,29.76,29.58,13,7,22,0.06
2012-7-27,85,74,67,71,67,64,98,80,53,29.89,29.71,12,5,18,0.08
2012-7-28,82,71,63,66,61,55,97,74,39,30.06,29.89,9,3,15,0.00
2012-7-29,84,73,59,65,60,53,98,67,38,30.10,29.96,5,1,9,0.00
2012-7-30,90,78,69,69,65,61,87,66,45,29.99,29.87,6,2,11,0.00
2012-7-31,83,75,64,71,66,61,96,75,59,29.96,29.83,16,6,20,0.23
2012-8-1,82,70,62,66,61,54,98,79,43,29.93,29.89,8,3,12,0.00
2012-8-6,-200,0,200,-100,-100,-100,0,0,100,30.17,30.13,0,-999,0,0.00
2012-8-22,83,76,67,58,53,49,63,45,35,30.18,30.08,8,3,14,0.03
2012-8-23,88,74,62,62,55,52,74,53,33,30.17,30.08,6,3,12,0.00
2012-8-24,90,75,65,62,58,56,74,57,35,30.11,30.03,8,3,12,0.00
2012-8-25,91,85,76,63,61,58,58,46,34,30.07,30.04,6,3,10,0.00
2012-8-26,76,75,74,61,60,60,63,59,57,30.07,30.06,5,4,6,0.00
2012-8-27,83,76,67,73,65,58,99,71,45,30.08,29.95,8,3,18,1.63
2012-8-28,82,70,58,62,59,56,94,70,45,30.16,30.05,7,2,12,0.00
2012-8-29,85,70,58,62,58,52,97,69,35,30.14,30.04,5,2,11,0.00
2012-8-30,85,73,61,61,58,56,85,62,38,30.13,30.02,9,4,16,0.00
2012-8-31,89,76,66,72,64,56,78,66,54,30.12,30.04,16,8,23,0.00
2012-9-4,86,80,72,71,70,69,90,73,58,29.88,29.85,5,1,11,0.00
2012-9-5,80,73,67,72,68,64,95,85,72,29.92,29.81,22,4,22,0.01
2012-9-6,84,74,66,70,63,53,98,72,37,29.94,29.85,12,5,18,0.00
2012-9-7,81,68,60,68,62,57,96,81,51,29.94,29.74,11,3,19,0.23
2012-9-8,68,62,55,61,53,48,97,77,49,29.91,29.76,18,6,25,0.14
2012-9-9,73,62,54,56,53,50,98,75,45,30.15,29.90,7,2,14,0.06
2012-9-10,76,62,49,51,47,42,93,63,31,30.28,30.15,6,2,9,0.00
2012-9-11,81,68,56,55,51,47,81,58,37,30.25,30.15,14,6,22,0.00
2012-9-12,78,64,58,58,54,52,80,69,49,30.25,30.18,10,5,15,0.00
2012-9-13,76,66,61,62,58,56,85,77,57,30.27,30.19,8,3,11,0.00
2012-9-14,72,61,52,57,49,40,97,69,37,30.36,30.27,10,3,15,0.49
2012-9-15,77,62,48,52,47,41,89,60,35,30.37,30.20,7,2,14,0.00
2012-9-16,77,65,53,53,48,38,84,57,28,30.20,30.04,11,4,16,0.00
2012-9-17,62,61,60,49,49,48,67,64,61,30.05,30.03,4,2,6,0.00
2012-9-19,69,62,50,43,39,34,74,43,31,30.17,30.00,14,9,24,0.00
2012-9-20,72,62,55,52,44,39,78,54,31,30.01,29.90,13,7,22,0.00
2012-9-21,69,56,47,51,43,36,95,66,30,29.99,29.83,14,5,20,0.04
2012-9-22,54,50,47,50,45,39,98,83,64,30.19,29.81,23,9,31,0.07
2012-9-23,57,49,41,42,38,32,91,68,41,30.31,30.19,16,6,26,0.00
2012-9-24,67,52,39,40,35,28,88,57,25,30.30,30.02,17,8,27,0.00
2012-9-25,56,55,53,44,41,38,68,60,50,30.03,29.95,10,6,15,0.00
2012-9-29,72,65,55,50,43,41,72,46,33,30.13,29.99,12,6,19,0.00
2012-9-30,66,55,44,50,45,41,97,71,42,30.00,29.94,12,4,19,0.00
2012-10-1,63,54,42,50,45,40,95,72,51,29.99,29.84,8,4,13,0.00
2012-10-2,62,58,52,58,53,48,94,84,75,29.93,29.82,12,6,16,0.12
2012-10-3,61,59,58,59,57,53,97,92,84,30.10,29.92,11,4,18,0.07
2012-10-4,78,65,54,58,54,51,93,71,43,30.16,30.05,18,9,29,0.07
2012-10-5,58,48,40,56,45,38,95,89,77,30.17,30.08,11,7,15,0.16
2012-10-6,46,41,34,38,34,30,93,75,56,30.22,30.09,15,7,20,0.00
2012-10-7,48,43,38,38,35,33,87,74,63,30.24,30.17,15,5,21,0.00
2012-10-8,56,43,33,35,28,25,90,59,31,30.29,30.14,11,5,17,0.00
2012-10-9,62,51,41,42,36,30,75,59,40,30.17,29.90,17,8,25,0.00
2012-10-10,54,44,39,44,34,26,95,70,42,30.25,29.89,20,11,27,0.20
2012-10-11,39,37,36,30,30,30,77,74,70,30.27,30.25,6,4,7,0.00
2012-10-15,52,48,42,46,42,38,96,81,61,30.03,29.82,15,7,19,0.00
2012-10-16,64,50,37,46,41,36,96,72,47,30.05,29.73,12,6,23,0.00
2012-10-17,71,62,54,55,50,46,92,68,45,29.73,29.46,17,10,38,0.38
2012-10-18,60,53,45,55,44,32,95,74,38,29.67,29.36,22,12,34,0.38
2012-10-19,49,46,44,46,44,42,96,93,87,29.68,29.54,11,7,22,0.45
2012-10-20,54,47,41,45,43,41,98,86,66,30.00,29.68,13,8,20,0.00
2012-10-21,67,52,40,50,45,39,97,78,53,30.15,30.00,9,4,16,0.00
2012-10-22,69,60,52,61,54,48,93,80,61,30.09,29.95,18,6,27,0.06
2012-10-23,67,63,60,62,58,55,96,86,71,30.03,29.94,19,7,30,0.08
2012-10-24,65,64,63,60,59,58,90,85,78,30.01,30.00,8,5,12,0.00
2012-10-25,77,71,58,61,58,54,84,65,55,29.97,29.82,18,7,29,0.05
2012-10-26,58,45,38,54,38,34,95,78,62,30.32,29.93,15,8,27,0.19
2012-10-27,50,41,33,37,32,30,87,73,47,30.33,30.22,15,9,21,0.00
2012-10-28,46,40,34,35,32,28,89,73,60,30.30,30.22,17,10,25,0.00
2012-10-29,47,40,34,32,27,22,77,60,40,30.25,29.94,26,14,36,0.01
2012-10-30,42,40,39,37,33,25,91,78,53,29.93,29.67,23,14,42,0.54
2012-10-31,42,40,38,39,37,35,95,89,83,29.86,29.71,12,5,22,0.03
2012-11-1,51,42,33,38,31,25,94,69,37,29.92,29.84,11,5,29,0.00
2012-11-2,46,40,34,35,32,30,90,74,58,30.19,29.91,14,4,21,0.00
2012-11-3,35,31,28,32,29,27,96,93,88,30.26,30.18,5,2,7,0.00
2012-11-12,40,34,31,38,27,22,95,74,58,30.39,30.02,18,12,29,0.53
2012-11-13,34,32,27,26,24,21,78,71,65,30.50,30.39,14,7,21,0.00
2012-11-14,40,36,30,28,27,23,83,69,58,30.64,30.49,7,2,11,0.00
2012-11-15,32,31,29,27,27,26,88,85,83,30.50,30.47,3,2,5,0.00
2012-11-23,36,36,36,31,31,30,83,82,79,29.97,29.95,20,17,22,0.05
2012-12-1,59,48,34,50,41,32,92,78,65,30.25,30.05,16,8,24,0.00
2012-12-2,59,56,54,55,52,46,98,86,62,30.12,29.98,17,8,26,0.24
2012-12-3,65,60,53,61,57,53,100,93,77,30.12,29.93,19,10,30,0.02
2012-12-4,63,51,42,58,45,34,95,79,58,30.24,29.95,16,7,28,0.50
2012-12-5,42,34,30,35,28,24,84,76,63,30.48,30.24,10,5,15,0.00
2012-12-6,41,34,28,37,30,23,87,82,76,30.35,30.02,9,6,15,0.00
2012-12-7,45,42,39,44,41,36,98,93,85,30.03,29.90,10,3,11,0.09
2012-12-8,43,42,42,42,42,42,99,99,98,29.98,29.87,4,1,7,0.04
2012-12-10,36,31,30,34,30,28,97,95,89,29.99,29.76,15,9,22,0.00
2012-12-11,33,30,27,30,25,22,97,84,65,30.26,29.98,14,8,24,0.00
2012-12-12,41,33,25,29,25,22,88,75,56,30.44,30.26,11,7,18,0.00
2012-12-13,34,32,32,26,26,26,79,77,75,30.43,30.41,7,7,14,0.00
2012-12-18,38,36,31,36,33,30,96,90,83,29.88,29.73,15,8,21,0.02
2012-12-19,41,40,39,37,36,35,87,85,79,30.13,30.00,8,4,14,0.00
2012-12-20,51,41,33,49,38,31,98,92,74,30.01,29.16,24,13,45,1.18
2012-12-21,34,32,30,32,30,27,98,91,81,30.14,29.27,29,7,50,0.05
2012-12-22,30,30,30,28,27,26,91,90,87,30.18,30.14,6,4,16,0.00
2012-12-26,27,27,25,26,24,22,94,91,89,30.07,29.95,21,14,28,0.00
2012-12-27,36,27,23,27,23,20,90,83,66,30.25,30.07,12,3,20,0.00
2012-12-28,30,28,27,27,26,25,96,90,83,30.23,29.97,10,3,12,0.00
2012-12-29,31,28,25,28,26,22,97,93,88,30.24,29.91,14,6,23,0.00
2012-12-30,27,22,17,22,18,14,92,85,75,30.47,30.25,16,9,24,0.00
2012-12-31,34,30,25,30,26,20,95,85,72,30.29,30.08,19,11,28,0.00
2013-1-1,31,25,14,26,20,12,93,83,63,30.24,30.13,6,2,10,0.00